CA3EAP-13 Weather Reports


Display with metric or nautical units.
time (UTC)temp
F
wind
direction
speed
MPH
gust
MPH
rain 1hr
in
rain 24hr
in
rain mn
in
humidity
%
barometer
mb
20260507124505 56 0.0 0.0 0.00 0.00 8.26 82 1023.7
20260507123505 55 0.0 0.0 0.00 0.00 8.26 83 1023.8
20260507122505 55 0.0 0.0 0.00 0.00 8.26 84 1023.9
20260507121505 55 0.0 0.0 0.00 0.00 8.26 82 1023.7
20260507120505 55 0.0 0.0 0.00 0.00 8.26 82 1023.4
20260507115505 55 0.0 0.0 0.00 0.00 8.26 83 1023.4
20260507114505 56 0.0 0.0 0.00 0.00 8.26 81 1023.1
20260507113505 56 0.0 0.0 0.00 0.00 8.26 80 1023.0
20260507112505 55 0.0 0.0 0.00 0.00 8.26 82 1023.2
20260507111506 55 0.0 0.0 0.00 0.00 8.26 84 1023.2
20260507110505 55 0.0 0.0 0.00 0.00 8.26 84 1023.0
20260507105505 55 0.0 0.0 0.00 0.00 8.26 83 1022.9
20260507104506 55 0.0 0.0 0.00 0.00 8.26 82 1022.7
20260507103505 56 0.0 0.0 0.00 0.00 8.26 80 1022.5
20260507102505 56 0.0 0.0 0.00 0.00 8.26 82 1022.5
20260507101507 55 0.0 0.0 0.00 0.00 8.26 81 1022.4
20260507100505 56 0.0 0.0 0.00 0.00 8.26 79 1022.4
20260507095505 58 0.0 0.0 0.00 0.00 8.26 76 1021.9
20260507094505 57 0.0 0.0 0.00 0.00 8.26 77 1021.9
20260507093505 56 0.0 0.0 0.00 0.00 8.26 79 1022.0
20260507092505 57 0.0 0.0 0.00 0.00 8.26 78 1021.8
20260507091505 56 0.0 0.0 0.00 0.00 8.26 78 1021.7
20260507090505 56 0.0 0.0 0.00 0.00 8.26 79 1021.8
20260507085505 56 0.0 0.0 0.00 0.00 8.26 80 1021.6
20260507084505 56 0.0 0.0 0.00 0.00 8.26 79 1021.5
20260507083505 56 0.0 0.0 0.00 0.00 8.26 80 1021.5
20260507082505 55 0.0 0.0 0.00 0.00 8.26 81 1021.6
20260507081505 56 0.0 0.0 0.00 0.00 8.26 81 1021.5
20260507080505 54 0.0 0.0 0.00 0.00 8.26 84 1021.7
20260507075505 55 0.0 0.0 0.00 0.00 8.26 82 1021.6
20260507074505 56 0.0 0.0 0.00 0.00 8.26 79 1021.4
20260507073505 56 0.0 0.0 0.00 0.00 8.26 79 1021.3
20260507072505 57 0.0 0.0 0.00 0.00 8.26 78 1021.1
20260507071505 57 0.0 0.0 0.00 0.00 8.26 77 1021.2
20260507070505 58 0.0 0.0 0.00 0.00 8.26 75 1021.1
20260507065505 57 0.0 0.0 0.00 0.00 8.26 77 1021.2
20260507064505 56 0.0 0.0 0.00 0.00 8.26 77 1021.4
20260507063505 56 0.0 0.0 0.00 0.00 8.26 80 1021.5
20260507062505 56 0.0 0.0 0.00 0.00 8.26 78 1021.3
20260507061505 56 0.0 0.0 0.00 0.00 8.26 81 1021.3
20260507060505 55 0.0 0.0 0.00 0.00 8.26 84 1021.4
20260507055505 55 0.0 0.0 0.00 0.00 8.26 85 1021.5
20260507054505 55 0.0 0.0 0.00 0.00 8.26 84 1021.5
20260507053505 55 0.0 0.0 0.00 0.00 8.26 81 1021.3
20260507052505 57 0.0 0.0 0.00 0.00 8.26 78 1020.9
20260507051505 57 0.0 0.0 0.00 0.00 8.26 79 1020.6
20260507050505 57 0.0 0.0 0.00 0.00 8.26 78 1020.7
20260507045505 58 0.0 0.0 0.00 0.00 8.26 76 1020.8
20260507044505 57 0.0 0.0 0.00 0.00 8.26 75 1020.8
20260507043505 58 0.0 0.0 0.00 0.00 8.26 73 1020.8
20260507042505 58 0.0 0.0 0.00 0.00 8.26 72 1020.8
20260507041505 59 0.0 0.0 0.00 0.00 8.26 71 1020.6
20260507040505 59 0.0 0.0 0.00 0.00 8.26 74 1020.6
20260507035505 59 0.0 0.0 0.00 0.00 8.26 73 1020.6
20260507034505 59 0.0 0.0 0.00 0.00 8.26 74 1020.4
20260507033505 59 0.0 0.0 0.00 0.00 8.26 75 1020.5
20260507032505 58 0.0 0.0 0.00 0.00 8.26 76 1020.6
20260507031505 58 0.0 0.0 0.00 0.00 8.26 75 1020.7
20260507030505 57 0.0 0.0 0.00 0.00 8.26 78 1020.6
20260507025505 59 0.0 0.0 0.00 0.00 8.26 75 1020.2
20260507024505 59 0.0 0.0 0.00 0.00 8.26 76 1020.2
20260507023505 59 0.0 0.0 0.00 0.00 8.26 78 1020.1
20260507022505 59 0.0 0.0 0.00 0.00 8.26 79 1020.0
20260507021505 59 0.0 0.0 0.00 0.00 8.26 78 1020.0
20260507020505 58 0.0 0.0 0.00 0.00 8.26 81 1019.9
20260507015505 58 0.0 0.0 0.00 0.00 8.26 82 1019.8
20260507014505 57 0.0 0.0 0.00 0.00 8.26 85 1020.1
20260507013505 57 0.0 0.0 0.00 0.00 8.26 85 1019.9
20260507012505 57 0.0 0.0 0.00 0.00 8.26 86 1020.0
20260507011505 57 0.0 0.0 0.00 0.00 8.26 85 1019.8
20260507010505 58 0.0 0.0 0.00 0.00 8.26 85 1019.8
20260507005505 58 0.0 0.0 0.00 0.00 8.26 84 1019.7
20260507004505 57 0.0 0.0 0.00 0.00 8.26 86 1019.7
20260507003505 57 0.0 0.0 0.00 0.00 8.26 88 1019.6
20260507002505 57 0.0 0.0 0.00 0.00 8.26 87 1019.5
20260507001505 58 0.0 0.0 0.00 0.00 8.26 88 1019.4
20260507000505 58 0.0 0.0 0.00 0.00 8.26 88 1019.3
20260506235505 58 0.0 0.0 0.00 0.00 8.26 88 1019.2
20260506234505 58 0.0 0.0 0.00 0.00 8.26 88 1019.0
20260506233505 58 0.0 0.0 0.00 0.00 8.26 89 1018.9
20260506232505 59 0.0 0.0 0.00 0.00 8.26 89 1018.8
20260506231505 59 0.0 0.0 0.00 0.00 8.26 88 1018.6
20260506230505 59 0.0 0.0 0.00 0.00 8.26 87 1018.6
20260506225505 60 0.0 0.0 0.00 0.00 8.26 85 1018.3
20260506224505 60 0.0 0.0 0.00 0.00 8.26 88 1018.2
20260506223505 59 0.0 0.0 0.00 0.00 8.26 92 1018.4
20260506221505 59 0.0 0.0 0.00 0.00 8.26 90 1018.0
20260506220505 59 0.0 0.0 0.00 0.00 8.26 90 1018.0
20260506215505 59 0.0 0.0 0.00 0.00 8.26 88 1017.8
20260506214505 59 0.0 0.0 0.00 0.00 8.26 90 1017.8
20260506213505 60 0.0 0.0 0.00 0.00 8.26 89 1017.5
20260506212505 61 0.0 0.0 0.00 0.00 8.26 89 1017.0
20260506211505 62 0.0 0.0 0.00 0.00 8.26 86 1016.9
20260506210505 62 0.0 0.0 0.00 0.00 8.26 87 1016.8
20260506205505 62 0.0 0.0 0.00 0.00 8.26 86 1016.6
20260506204505 63 0.0 0.0 0.00 0.00 8.26 82 1016.5
20260506203505 63 0.0 0.0 0.00 0.00 8.26 82 1016.5
20260506202505 63 0.0 0.0 0.00 0.00 8.26 82 1016.4
20260506201505 63 0.0 0.0 0.00 0.00 8.26 80 1016.2
20260506200505 64 0.0 0.0 0.00 0.00 8.26 77 1016.2
20260506195505 64 0.0 0.0 0.00 0.00 8.26 79 1016.2
20260506194505 65 0.0 0.0 0.00 0.00 8.26 75 1016.0
20260506193505 65 0.0 0.0 0.00 0.00 8.26 74 1016.0
20260506192505 65 0.0 0.0 0.00 0.00 8.26 74 1016.1
20260506191505 65 0.0 0.0 0.00 0.00 8.26 72 1016.1
20260506190505 66 0.0 0.0 0.00 0.00 8.26 70 1016.1
20260506185505 66 0.0 0.0 0.00 0.00 8.26 69 1016.1
20260506184505 65 0.0 0.0 0.00 0.00 8.26 70 1015.9
20260506183505 65 0.0 0.0 0.00 0.00 8.26 72 1016.1
20260506182505 65 0.0 0.0 0.00 0.00 8.26 73 1016.1
20260506181505 65 0.0 0.0 0.00 0.00 8.26 72 1016.2
20260506180505 64 0.0 0.0 0.00 0.00 8.26 74 1016.3
20260506175505 64 0.0 0.0 0.00 0.00 8.26 75 1016.5
20260506174505 64 0.0 0.0 0.00 0.00 8.26 74 1016.4
20260506173505 64 0.0 0.0 0.00 0.00 8.26 70 1016.4
20260506172505 64 0.0 0.0 0.00 0.00 8.26 71 1016.2
20260506171505 64 0.0 0.0 0.00 0.00 8.26 72 1016.3
20260506170505 64 0.0 0.0 0.00 0.00 8.26 71 1016.4
20260506165505 63 0.0 0.0 0.00 0.00 8.26 73 1016.6
20260506164505 63 0.0 0.0 0.00 0.00 8.26 72 1016.2
20260506163505 63 0.0 0.0 0.00 0.00 8.26 69 1015.7
20260506162505 63 0.0 0.0 0.00 0.00 8.26 66 1015.6
20260506161505 65 0.0 0.0 0.00 0.00 8.26 59 1014.8
20260506160505 67 0.0 0.0 0.00 0.00 8.26 50 1014.5
20260506155505 68 0.0 0.0 0.00 0.00 8.26 46 1014.3
20260506154505 67 0.0 0.0 0.00 0.00 8.26 48 1014.1
20260506153505 68 0.0 0.0 0.00 0.00 8.26 48 1014.0
20260506152505 69 0.0 0.0 0.00 0.00 8.26 45 1014.1
20260506151505 68 0.0 0.0 0.00 0.00 8.26 48 1014.0
20260506150505 68 0.0 0.0 0.00 0.00 8.26 49 1014.2
20260506145505 67 0.0 0.0 0.00 0.00 8.26 51 1014.2
20260506144505 68 0.0 0.0 0.00 0.00 8.26 51 1014.1
20260506143505 67 0.0 0.0 0.00 0.00 8.26 54 1014.0
20260506142505 66 0.0 0.0 0.00 0.00 8.26 59 1014.0
20260506141505 65 0.0 0.0 0.00 0.00 8.26 60 1014.3
20260506140505 63 0.0 0.0 0.00 0.00 8.26 64 1014.7
20260506135505 64 0.0 0.0 0.00 0.00 8.26 63 1014.7
20260506134505 65 0.0 0.0 0.00 0.00 8.26 60 1014.6
20260506133505 66 0.0 0.0 0.00 0.00 8.26 59 1014.6
20260506132505 65 0.0 0.0 0.00 0.00 8.26 60 1014.7
20260506131505 64 0.0 0.0 0.00 0.00 8.26 62 1015.0
20260506130505 64 0.0 0.0 0.00 0.00 8.26 63 1015.0
20260506125505 63 0.0 0.0 0.00 0.00 8.26 64 1015.1